Location: Beuvrequen
(50.8014°N, 1.6652°E)
Time: 20:49:17
(UTC+00:00)

YAOGAN 1 - Pass Details

Date: 16 October 2021
Orbit: 618 x 620 km, 97.9° (Epoch: 04 December)

Event Time Altitude Azimuth Distance (km) Brightness Sun altitude
Rises 18:03:58 0° 150° (SSE) 2,887 5.7 -11.1°
Reaches altitude 10° 18:06:10 10° 146° (SE) 1,986 4.8 -11.4°
Maximum altitude 18:10:22 52° 70° (ENE) 777 2.7 -12.1°
Drops below altitude 10° 18:14:35 10° 355° (N) 2,001 5.3 -12.7°
Sets 18:16:49 0° 350° (N) 2,912 6.2 -13.1°
